Location: Grasslands National Park East Block
(49.0708°N, 106.5295°W)
Time: 02:15:02
(UTC-06:00)

Vanguard 1 Rocket - Pass Details

Date: 26 September 2019
Orbit: 650 x 4226 km, 34.3° (Epoch: 13 October)

Event Time Altitude Azimuth Distance (km) Brightness Sun altitude
Rises 23:30:36 0° 276° (W) 6,927 12.3 -39.0°
Reaches altitude 10° 23:38:13 10° 259° (W) 5,085 11.3 -39.5°
Enters shadow 23:44:06 16° 234° (SW) 3,918 10.5 -39.9°
Maximum altitude 23:45:04 16° 229° (SW) 3,786 - -40.0°
Drops below altitude 10° 23:50:10 10° 195° (SSW) 3,577 - -40.3°
Sets 23:54:02 0° 173° (S) 4,049 - -40.6°
